Powrót do katalogu

DELTA 1 DEB

AktywnySSO
NORAD 12266·DEBRIS·🇺🇸 United States

Wystrzelony Mar 5, 1978 z Vandenberg Space Force Base

Loading…

Następne Przeloty (najbliższe 24 godziny)

TLE

ŚwieżeSource: Space-Track

Epoka: Sep 14, 2026, 07:51 UTC

1 12266U 78026DK  26257.32714891  .00001542  00000-0  10045-2 0  9991
2 12266  98.7733  41.8448 0143553 154.4130 206.4230 13.98898685296362

Śledź DELTA 1 DEB w czasie rzeczywistym z AllMySat

Download on the App Store